This is the latest recevied weather packets stored in our database for station/object KG7QQL. If no packets are shown the sender has not sent any weather packets the latest 10 day(s).
| Time | Temp. | Humidity | Pressure | Rain* | Wind** | Luminosity | Snow |
|---|---|---|---|---|---|---|---|
| 1777939191 | 26.11° C | 43% | - | 0 mm | - | - | - |
| 1777938888 | 26.67° C | 44% | - | 0 mm | - | - | - |
| 1777938585 | 26.11° C | 43% | - | 0 mm | - | - | - |
| 1777938282 | 27.78° C | 41% | - | 0 mm | - | - | - |
| 1777937978 | 27.22° C | 41% | - | 0 mm | - | - | - |
| 1777937674 | 26.11° C | 43% | - | 0 mm | - | - | - |
| 1777937371 | 27.22° C | 40% | - | 0 mm | - | - | - |
| 1777937068 | 26.67° C | 42% | - | 0 mm | - | - | - |
| 1777936766 | 26.11° C | 42% | - | 0 mm | - | - | - |
| 1777936462 | 26.67° C | 43% | - | 0 mm | - | - | - |
| 1777936158 | 26.67° C | 42% | - | 0 mm | - | - | - |
| 1777935855 | 26.67° C | 42% | - | 0 mm | - | - | - |
| 1777935554 | 26.11° C | 43% | - | 0 mm | - | - | - |
| 1777935250 | 25.56° C | 43% | - | 0 mm | - | - | - |
| 1777934948 | 25.56° C | 43% | - | 0 mm | - | - | - |
| 1777934644 | 25.56° C | 43% | - | 0 mm | - | - | - |
| 1777934342 | 25.56° C | 43% | - | 0 mm | - | - | - |
| 1777934037 | 25° C | 42% | - | 0 mm | - | - | - |
| 1777933733 | 26.11° C | 45% | - | 0 mm | - | - | - |
| 1777933430 | 25.56° C | 42% | - | 0 mm | - | - | - |
| 1777933129 | 25° C | 44% | - | 0 mm | - | - | - |
| 1777932825 | 25.56° C | 45% | - | 0 mm | - | - | - |
| 1777932522 | 25° C | 48% | - | 0 mm | - | - | - |
| 1777932219 | 25° C | 45% | - | 0 mm | - | - | - |
| 1777931916 | 25° C | 46% | - | 0 mm | - | - | - |
* Rain latest hour (hover to see other rain measurements)
** Current wind speed in m/s (hover to see current wind gust speed)